Location: Enborne
(51.3833°N, 1.3667°W)
Time: 15:32:09
(UTC+00:00)

Cosmos 2285 Rocket - Pass Details

Date: 18 September 2020
Orbit: 970 x 1000 km, 74.0° (Epoch: 27 October)

Event Time Altitude Azimuth Distance (km) Brightness Sun altitude
Rises 21:19:05 0° 214° (SW) 3,656 6.9 -27.3°
Reaches altitude 10° 21:21:38 10° 218° (SW) 2,715 6.3 -27.6°
Maximum altitude 21:27:53 63° 299° (WNW) 1,086 4.4 -28.2°
Drops below altitude 10° 21:34:12 10° 21° (NNE) 2,750 6.6 -28.9°
Sets 21:36:48 0° 25° (NNE) 3,706 7.3 -29.2°
